[Date Prev][Date Next][Thread Prev][Thread Next] - [Date Index][Thread Index][Author Index]

2 Line ISS Keps 12-31



ISS
1 25544U 98067A   03365.15602628  .00024290  00000-0  23564-3 0  9515
2 25544  51.6299 105.7326 0006270 321.5494 119.2295 15.66189387291804


----
Via the sarex mailing list at AMSAT.ORG courtesy of AMSAT-NA.
To unsubscribe, send "unsubscribe sarex" to Majordomo@amsat.org



AMSAT Top AMSAT Home